Showing default

CARTOSAT 2F, 43111

Orbit data source: Space-Track

CARTOSAT 2F, 43111 is a payload satellite owned by ISRO (IN) in SSO that was launched on Fri, 12 Jan 2018 UTC via a PSLV-XL launch vehicle from the Sirharikota (SRI). Payload-class satellites include a variety of spacecraft equipped with specific instruments for various scientific and technological missions. These include communications satellites like Starlink; space stations such as the ISS; scientific satellites like the Hubble; Earth observation satellites from companies like Planet Labs, Umbra, and HawkEye 360; GPS; miniature CubeSats for education and research; and military/defense satellites.

Loading next visibility...
Identifier
43111, 2018-004A
Orbit
SSO
Country
Flag of ININ / IND
Related business
Manufacturer
ISRO
Mission
Operational Defense Imaging
Bus & Motor
IRS-2, AOCS
Mass
712 kg wet, 639 kg dry
Launch date (UTC)
2018-01-12 (8 years ago)
Launch vehicle
PSLV-XL
Launch site
Sirharikota (SRI)
Object type
Payload
Rocket body
Debris
Shape & HBR
Hex Cyl + 2 Pan, 4.0 m
Radar Cross Section
9.780 m², Large (>1 m²)

Expand to show TLE details & history
Last TLE update: 10 hours ago

TLE from 10 hours ago
0 CARTOSAT 2F
1 43111U 18004A   25306.50556907  .00005959  00000-0  28558-3 0  9995
2 43111  97.4380   4.7803 0000963 345.1120  15.0086 15.19290034432912
Epoch: 2025-11-02T12:08Z
TLE epoch observation values (Epoch: 2025-11-02T12:08:01.167Z)
Latitude
-0.00005°
Longitude
140.75511°
Altitude
510.433 km
Speed
7.609 km/s
True Right ascension
00h 19m 07s
True Declination
0° 00' 00"
Sunlit
Object was in full shadow at epoch
Visualization orbit readout
Latitude
Unknown
Longitude
Unknown
Altitude
Unknown
Speed
Unknown
Apparent Right ascension
Unknown
Apparent Declination
Unknown
Sunlit
N/A
Visualization observer readout
Local Sidereal Time
17:46:12
Azimuth
Unknown
Elevation
Unknown
Doppler factor
Unknown
Orbital elements
Apogee altitude
505.616 km
Perigee altitude
504.29 km
Semi-major axis
6,883.09 km
Eccentricity
0.0001
Inclination
97.438°
RAAN
4.7803°
Arg. of periapsis
345.112°
True anomaly
15.01146°
Mean anomaly
15.0086°
Eccentric anomaly
15.01003°
Mean motion
3.80074 °/min
Orbital period
94.72 mins
BSTAR
0.00028558
Loading maneuver chart data...
Computing Atmospheric mass density...

Documentation

Showing up to 5 results
|